Wind_Speed
26 27 28 29 29 28 28 27 26 23 21 17 15 14 15 17 19 22 23 24 26 29 32 34 36 39 41 43 44 45 45 45 45 47 50 55 59 60 60 60 61 64 68 66 62 61 62 60 59 59 60 61 63 64 65 66 66 66 67 66 66 67 67
25 27 28 29 30 28 27 27 26 24 22 19 16 13 13 13 15 16 17 19 20 22 26 29 32 35 38 41 44 44 44 45 46 46 46 48 53 59 60 61 62 62 65 66 63 60 60 58 55 56 58 58 60 62 63 64 66 67 68 68 68 68 69
25 27 28 29 30 29 27 25 24 23 22 20 17 13 11 11 11 12 13 14 16 18 20 24 27 29 33 36 40 43 43 44 45 46 45 43 46 53 57 58 61 62 63 64 62 60 59 58 55 54 55 55 55 57 58 61 64 65 66 68 69 69 69
26 27 28 28 29 29 28 25 23 23 21 19 17 14 12 10 10 11 12 13 15 16 18 20 22 24 26 29 33 37 40 42 43 44 43 41 41 46 51 52 55 57 58 58 57 55 54 54 52 50 51 51 51 52 54 56 59 62 63 66 68 69 70
26 27 28 28 28 28 28 26 23 21 21 20 18 15 13 10 10 11 12 14 15 17 18 19 20 20 21 22 24 27 31 35 38 39 39 38 38 41 45 46 47 48 50 52 51 48 47 47 47 46 47 47 47 48 49 51 54 57 60 63 65 67 68
26 27 28 28 27 26 27 27 24 21 20 19 18 17 15 12 11 11 12 14 16 17 19 20 20 19 19 20 19 20 22 26 29 30 31 32 33 35 37 39 41 42 44 46 46 44 42 42 43 43 44 44 44 45 46 48 50 52 55 59 62 64 65
25 26 27 27 27 26 26 26 25 23 20 19 18 17 16 15 12 11 11 12 14 16 17 19 20 20 20 20 20 19 19 20 22 24 26 27 29 31 33 35 38 39 40 42 42 41 40 40 40 40 41 41 41 42 44 45 46 49 52 54 58 60 60
24 26 27 27 26 26 26 27 26 25 21 18 17 16 16 15 13 12 11 11 12 13 14 16 17 19 20 21 22 22 21 21 22 23 25 26 28 30 33 35 37 37 38 39 39 39 39 39 39 39 39 39 40 41 42 42 44 47 48 49 50 52 53
26 26 26 26 26 26 26 27 27 26 23 18 16 15 14 15 14 12 10 9 9 10 11 12 14 15 17 18 20 22 24 24 25 26 27 27 29 31 33 35 36 36 36 36 36 37 37 37 38 38 38 38 39 39 38 38 40 43 43 42 42 43 45
25 26 26 26 25 25 26 27 26 25 22 18 16 14 13 13 13 13 11 10 9 9 9 10 11 12 13 15 17 19 23 25 27 29 29 29 30 31 32 34 34 35 36 34 34 35 33 32 35 36 35 35 35 34 33 35 37 38 38 37 38 38 38
24 25 25 25 25 25 26 26 25 23 20 18 16 15 13 11 11 12 12 11 9 9 9 10 10 11 11 12 13 15 18 22 25 28 29 30 31 31 31 32 33 35 36 35 34 34 32 31 32 32 30 29 29 29 30 32 33 35 35 35 35 34 33
24 24 25 25 25 25 25 24 22 21 19 18 17 16 15 13 12 12 13 12 10 9 10 10 10 9 9 9 10 12 14 16 20 23 26 28 29 30 32 33 34 34 35 34 34 33 32 30 30 28 27 26 26 26 27 29 30 32 33 32 31 31 30
23 23 24 24 24 24 23 21 20 19 18 18 17 17 17 15 14 13 13 13 12 10 11 11 11 10 9 8 8 9 11 13 15 19 22 25 27 29 32 34 34 34 34 34 33 32 31 30 29 29 27 24 24 24 25 26 27 28 28 28 28 28 28
22 22 23 23 22 21 20 18 18 17 16 17 17 18 18 18 17 14 13 14 14 13 13 13 14 14 11 9 8 7 9 11 13 15 19 22 25 27 30 32 33 33 34 35 35 34 31 29 29 29 26 23 23 23 23 23 24 25 25 26 26 26 27
20 20 22 22 21 19 17 16 16 15 14 14 14 15 17 18 18 16 14 14 15 16 16 16 16 17 15 13 11 8 9 11 12 14 17 19 22 24 27 30 31 32 33 35 35 34 31 29 28 27 24 24 24 22 21 22 24 25 26 26 27 28 30
20 19 20 21 21 18 15 15 14 13 13 12 12 13 16 17 18 17 16 16 15 16 18 18 18 18 17 16 13 9 9 11 13 15 16 17 20 22 24 27 29 29 32 33 34 33 31 28 28 27 25 26 25 24 23 22 24 26 27 28 30 31 31
19 19 19 19 20 18 15 13 12 12 12 9 11 15 18 18 19 19 18 17 16 16 17 18 18 18 16 14 13 11 10 11 15 17 16 16 18 21 24 25 27 28 30 31 31 31 29 28 28 28 28 28 27 27 28 27 28 28 27 28 30 32 31
17 18 18 18 18 18 16 12 10 11 11 6 7 13 16 15 16 18 18 17 16 15 16 17 17 18 16 14 13 12 11 12 15 18 17 16 18 21 24 24 25 28 30 30 31 31 31 30 29 29 31 32 30 30 30 31 31 30 30 31 33 33 32
16 16 17 17 17 17 15 12 10 12 13 7 5 11 14 12 13 15 16 16 16 14 14 16 17 18 18 16 14 14 14 14 17 18 18 18 18 21 23 22 23 26 28 30 31 31 32 32 31 31 33 34 33 31 31 32 33 32 33 34 35 34 34
15 14 16 16 15 15 15 13 12 14 15 12 9 12 14 14 15 16 17 17 16 15 14 15 16 17 17 17 16 15 15 17 19 19 18 17 17 18 19 21 23 25 26 27 28 29 30 32 33 33 34 35 34 32 32 33 33 34 34 35 36 36 36
15 14 14 14 14 14 14 14 14 15 16 15 13 13 15 16 17 18 19 19 17 16 15 14 15 16 16 17 18 17 16 16 19 20 17 13 13 15 16 19 23 25 24 25 25 25 27 30 32 33 36 37 35 31 30 31 32 32 33 33 34 35 36
16 14 14 14 13 13 13 14 14 15 16 15 15 15 15 16 16 17 18 18 16 16 15 13 13 15 16 17 17 15 14 14 17 19 16 12 11 12 14 17 21 24 25 26 25 25 26 28 29 31 35 37 34 29 28 28 29 29 29 30 31 32 35
16 15 14 14 14 14 13 14 14 16 16 17 17 17 16 16 16 15 16 16 16 16 15 13 13 14 15 14 14 13 13 14 16 17 15 12 12 11 11 15 19 23 26 27 27 26 27 28 28 30 33 34 30 27 26 27 27 27 27 28 29 30 33
17 16 16 15 15 15 15 14 15 15 17 18 19 20 19 19 17 15 15 16 16 16 15 12 12 14 15 15 15 15 15 16 16 15 14 11 10 10 10 12 16 21 25 28 28 27 27 28 29 29 29 28 25 25 26 27 27 27 27 28 29 30 32
17 16 16 15 15 15 16 16 16 16 16 18 19 20 21 21 19 18 16 16 16 16 16 14 13 14 16 17 17 16 16 16 15 14 12 11 9 9 9 10 13 17 23 28 29 28 27 27 26 26 25 24 24 25 27 27 28 27 28 28 27 27 28
17 17 17 15 15 16 16 17 17 17 17 18 18 19 21 21 21 20 19 18 17 16 16 15 14 14 15 16 17 17 17 16 16 15 13 12 11 11 10 11 13 16 20 24 26 27 26 25 24 24 25 25 26 26 26 26 27 26 26 25 24 24 25
18 18 18 16 15 16 17 17 18 19 20 20 19 18 19 20 21 21 21 20 18 17 16 16 15 14 14 14 15 17 18 18 17 16 16 15 14 14 14 13 15 17 19 22 24 26 27 26 26 27 27 27 27 27 26 26 26 24 24 24 24 24 24
20 20 19 18 17 18 17 17 18 20 21 21 20 19 19 19 21 22 23 22 21 18 17 16 15 15 14 13 14 15 16 17 18 18 18 18 18 18 18 17 18 19 20 22 24 26 27 27 27 27 27 26 27 27 26 25 24 23 23 24 24 25 25
21 20 19 19 19 19 19 19 19 20 21 21 21 21 20 19 20 21 21 21 20 18 16 15 15 14 14 14 14 15 15 16 17 18 19 20 21 21 22 22 22 22 22 23 24 26 27 28 28 27 27 26 25 26 25 25 24 23 23 23 24 24 24
21 20 19 19 19 20 20 21 21 21 21 21 22 22 21 20 20 19 17 17 17 16 14 14 14 14 14 14 14 15 15 16 16 17 18 20 21 23 24 25 26 26 26 26 26 26 27 27 27 28 28 27 26 25 26 26 25 23 22 22 23 23 22
20 20 20 19 19 19 20 22 22 22 22 22 22 22 21 20 20 18 16 16 16 15 14 13 13 14 14 13 14 14 14 15 16 17 18 19 21 22 24 25 27 28 30 30 31 30 29 28 27 27 28 29 29 28 26 25 25 24 23 22 22 22 21
20 20 20 20 20 19 20 21 22 23 23 23 22 21 20 19 18 16 16 16 15 14 14 13 13 13 14 13 13 13 13 14 15 16 17 18 19 21 22 23 25 27 28 30 32 33 33 32 31 29 29 30 32 31 29 26 26 25 24 23 23 22 21
22 21 20 20 21 21 21 21 22 23 22 21 20 19 18 18 17 15 15 15 14 14 14 13 12 13 13 13 14 13 13 14 15 15 16 17 18 20 21 22 23 24 25 27 28 30 31 33 34 33 32 32 33 33 31 30 28 27 26 25 24 22 21
23 23 22 22 22 21 21 21 21 21 20 18 18 18 17 16 15 14 13 13 13 14 14 13 13 13 13 13 14 13 14 14 15 14 15 16 16 18 19 19 20 22 23 24 25 26 27 29 31 33 34 35 35 35 34 31 30 29 28 27 24 22 21
20 22 22 22 21 20 19 19 18 18 16 16 16 16 15 14 14 13 13 13 14 14 13 13 13 13 13 13 13 13 13 13 13 13 14 14 15 16 16 17 18 18 19 20 22 23 25 26 26 28 30 33 35 37 36 35 33 31 30 28 25 23 21
16 17 18 19 18 18 17 17 16 16 15 14 14 14 14 13 13 13 13 14 15 14 14 14 13 13 13 13 13 12 12 12 12 13 13 13 14 14 15 15 16 17 18 18 18 20 21 23 24 25 26 28 31 34 36 37 36 34 31 29 26 24 22
Wind_Direction
342 343 342 340 338 337 339 345 348 349 348 344 331 309 287 270 259 253 249 245 243 243 246 248 250 250 250 250 250 252 252 250 246 242 238 235 232 231 231 233 237 242 243 242 241 240 238 236 235 234 234 236 238 240 241 241 240 239 239 238 238 238 238
338 341 342 341 340 338 337 340 346 350 351 351 348 333 310 287 267 256 248 244 243 245 248 251 253 254 252 251 251 251 251 250 249 246 243 238 234 233 234 234 236 240 244 244 243 243 242 240 239 238 237 237 238 239 240 241 241 240 240 239 238 238 238
334 336 338 339 341 341 338 336 340 346 350 351 352 347 330 307 282 264 253 248 248 250 252 254 257 259 257 253 252 251 251 250 250 249 247 242 236 234 235 235 236 239 243 245 245 244 244 243 243 242 241 240 240 240 240 240 240 240 241 240 239 238 237
328 330 332 334 337 340 339 335 334 340 344 348 350 349 339 321 300 280 266 258 256 256 256 257 260 262 263 259 256 252 251 251 251 251 250 247 240 235 233 233 234 237 240 243 244 243 243 243 242 241 241 240 239 240 241 242 241 241 240 240 240 239 238
323 325 326 328 332 337 338 335 331 331 336 341 345 346 340 327 309 292 278 268 263 260 260 261 261 262 264 263 260 255 251 250 250 250 250 248 243 237 233 231 230 233 237 240 243 242 240 240 239 237 236 237 237 238 240 242 242 242 241 240 240 239 239
319 321 322 323 327 331 335 334 330 325 326 331 337 340 337 331 315 299 286 276 269 265 262 262 261 262 262 262 262 258 253 251 249 247 245 242 239 235 231 228 227 230 235 239 243 242 240 239 237 235 233 233 234 236 237 240 242 243 244 243 242 240 239
316 320 320 321 323 326 331 333 329 323 318 321 328 333 333 331 325 311 297 286 278 272 269 266 263 261 260 260 260 257 253 249 246 243 239 235 231 228 227 226 226 228 231 236 240 241 240 240 238 236 234 232 233 235 236 238 241 242 244 245 245 243 241
314 317 319 320 321 324 328 330 327 323 317 313 316 323 326 327 328 323 311 300 291 284 278 272 269 265 262 259 257 256 253 248 244 240 237 232 228 225 227 229 231 231 231 234 237 238 239 239 239 237 236 234 234 235 235 237 240 243 243 245 247 247 245
312 316 319 320 320 323 326 326 323 320 317 312 306 310 317 320 322 324 319 312 306 297 286 278 273 270 266 262 259 256 254 250 247 245 242 240 236 233 233 235 235 235 234 233 234 236 237 238 238 237 236 235 236 237 237 237 241 244 245 245 247 247 247
311 314 318 319 320 323 323 321 317 315 317 315 305 299 301 306 311 315 316 316 313 304 295 287 279 273 268 265 262 257 254 252 250 249 248 246 245 243 243 243 241 238 236 233 232 232 231 234 236 236 237 237 238 238 238 238 240 243 243 245 247 246 245
310 314 316 318 320 322 321 317 315 314 314 313 307 299 292 288 291 296 302 308 309 305 301 295 289 283 275 270 267 262 257 253 251 251 250 248 246 243 241 243 242 238 235 233 232 230 229 231 235 236 237 238 238 237 238 239 240 242 242 243 246 247 244
309 312 315 317 320 321 320 316 313 313 311 308 305 301 294 285 275 274 283 293 297 296 296 295 293 288 282 278 276 274 269 263 257 252 249 247 245 239 234 233 234 234 233 231 230 229 228 230 233 235 234 235 237 237 238 239 240 241 241 241 244 245 244
307 311 313 315 318 320 318 314 310 310 308 305 303 302 298 291 278 267 265 274 281 281 283 287 288 284 280 279 283 285 284 276 268 260 252 246 242 237 233 231 230 229 228 227 227 227 227 228 232 235 233 232 235 236 235 235 235 236 239 241 242 244 245
302 307 309 310 314 318 316 312 309 309 308 307 304 300 297 296 291 281 265 259 264 267 271 278 284 285 281 274 276 290 294 287 277 269 258 248 242 237 234 232 230 226 224 223 224 226 227 228 231 235 232 225 224 229 231 234 236 238 242 246 248 247 246
297 302 304 305 310 316 313 305 301 305 314 318 314 305 300 299 300 299 287 269 259 259 262 268 276 283 286 279 273 278 292 293 285 274 263 253 245 238 233 231 229 225 223 223 225 227 228 228 229 231 225 214 214 224 232 236 240 243 246 248 248 247 245
294 298 299 300 306 312 308 298 298 313 326 335 343 335 321 311 308 307 303 291 274 262 259 260 266 275 283 284 278 273 281 289 287 278 268 258 249 241 235 231 228 225 223 224 226 228 230 230 227 225 216 207 214 228 232 232 236 241 245 246 246 245 244
292 294 295 297 303 308 307 302 309 321 323 339 357 340 322 314 311 308 305 300 289 274 263 256 258 267 275 278 279 280 283 288 289 285 276 264 252 243 237 232 227 225 224 225 227 228 232 233 229 223 214 208 219 233 236 235 234 234 238 243 244 246 246
288 290 292 295 300 305 308 309 314 309 302 322 353 322 306 305 305 302 302 301 293 283 271 258 253 259 266 271 280 290 295 292 290 289 284 273 258 246 240 235 230 228 226 226 226 227 230 232 229 225 219 214 220 232 237 238 237 234 236 240 243 247 249
282 285 288 293 298 303 308 312 308 294 287 289 298 290 286 288 287 288 293 294 288 281 273 262 253 253 260 270 280 290 294 294 294 294 290 281 266 252 245 239 235 233 230 226 225 225 227 229 227 226 224 221 223 231 236 238 238 238 241 244 246 249 251
277 279 284 289 297 303 307 310 303 290 285 284 281 277 278 279 280 281 284 285 283 278 271 264 257 253 255 264 270 275 279 285 294 299 296 286 274 261 252 244 238 235 231 226 226 228 230 229 227 226 226 224 227 234 239 240 242 243 246 249 251 252 253
273 275 277 284 294 302 305 306 301 292 286 284 283 283 283 285 287 288 289 289 288 282 272 264 260 252 249 253 259 266 271 274 283 292 296 294 281 266 254 244 236 232 226 221 220 225 230 231 230 229 227 226 229 236 241 243 246 248 249 251 252 252 253
269 269 271 278 290 301 306 306 301 296 290 283 279 281 284 289 294 297 298 298 295 286 276 267 259 251 248 251 257 264 268 265 271 284 295 310 307 282 259 244 233 224 218 214 213 218 225 227 228 229 229 228 232 239 243 245 248 249 250 251 252 252 253
265 264 265 272 284 297 307 308 302 296 290 282 276 274 276 281 289 296 301 301 297 291 284 273 259 250 247 250 252 253 253 253 260 271 281 299 313 301 270 244 230 220 214 210 210 217 223 223 222 225 228 230 235 241 245 245 246 246 249 252 254 254 254
262 261 263 270 280 292 302 306 304 298 289 281 276 274 274 275 278 284 292 296 296 293 289 280 264 251 245 243 242 243 246 250 257 265 268 275 292 295 272 244 230 223 215 210 210 216 221 221 221 224 227 232 238 243 243 242 242 246 252 257 257 256 254
260 260 262 269 277 286 294 301 304 303 295 286 281 279 277 276 275 276 280 286 289 288 286 280 268 255 247 244 244 245 247 250 256 262 264 264 269 274 265 246 234 227 219 215 215 218 222 223 224 227 230 235 239 241 241 241 244 250 256 258 256 255 253
263 264 263 265 272 280 288 296 301 303 302 296 291 285 280 277 275 273 274 279 282 282 280 276 270 261 253 248 246 246 246 247 249 252 256 257 256 255 251 241 233 229 225 222 222 224 227 229 231 234 236 239 240 240 240 243 247 251 252 250 250 251 250
266 268 266 266 269 274 282 292 299 302 303 301 299 294 287 281 276 272 271 272 275 277 276 273 270 266 259 252 247 245 246 247 247 248 251 253 252 251 249 242 234 230 228 227 228 229 232 233 235 236 237 238 239 241 242 244 245 244 242 242 245 248 248
268 270 271 273 275 276 280 288 296 299 300 300 300 298 294 288 281 275 270 266 266 269 270 267 266 265 262 256 251 249 248 249 250 250 249 249 248 249 249 247 243 237 234 232 231 232 233 233 233 234 235 236 238 240 240 239 238 237 238 240 244 247 250
270 272 275 278 282 284 286 291 296 299 299 300 300 300 299 293 284 279 272 263 259 262 264 261 260 260 259 257 254 251 251 251 250 249 248 246 246 245 246 247 247 245 242 240 238 236 235 234 232 231 230 231 234 236 235 234 236 238 239 242 246 249 252
276 277 281 284 287 291 294 296 299 300 300 301 302 302 301 295 288 286 279 266 260 261 262 259 256 255 256 256 254 251 250 249 248 248 247 245 245 244 244 245 246 246 246 246 245 243 240 238 235 232 228 225 228 233 234 234 236 239 242 244 246 249 251
281 283 286 289 291 294 297 299 300 301 300 300 301 301 299 295 292 290 282 270 265 266 266 263 257 253 253 254 254 252 251 249 248 247 247 248 248 247 246 245 245 246 246 246 246 246 245 242 239 235 231 227 226 229 232 233 235 239 242 244 244 244 247
287 288 290 292 294 295 297 297 298 298 298 299 300 299 297 295 293 286 274 268 268 267 266 264 260 256 254 256 257 256 254 253 252 249 248 250 251 252 252 251 249 249 248 247 246 246 247 245 242 239 235 232 230 230 230 232 235 240 245 246 243 242 245
293 292 292 293 295 295 296 296 295 295 296 297 298 298 297 295 290 279 269 267 270 269 267 265 262 259 258 258 260 260 259 259 257 254 253 253 254 255 258 258 257 255 254 252 250 248 246 245 244 242 239 236 235 235 233 232 234 240 246 246 242 241 246
296 296 295 295 296 297 298 298 297 297 298 299 298 296 294 291 285 277 269 267 269 269 267 266 263 260 258 257 257 259 260 262 263 262 260 260 260 261 262 262 261 259 257 255 255 252 249 246 243 242 240 238 237 238 238 235 235 239 244 243 239 242 248
294 295 296 296 297 300 301 300 300 300 301 301 299 295 291 285 279 276 272 268 267 266 264 262 260 257 254 253 252 255 259 262 265 266 266 265 265 265 265 264 262 260 258 256 255 254 253 249 244 241 240 237 236 236 237 237 238 240 241 239 237 242 249
297 296 298 299 300 303 304 304 305 306 308 309 307 300 292 281 272 270 269 269 269 266 261 259 257 255 253 252 251 253 258 262 265 267 268 268 268 268 267 265 264 262 260 259 257 255 253 250 246 242 238 236 235 235 235 235 237 239 240 238 238 242 247
Height
2900 2897 2894 2891 2887 2884 2881 2877 2873 2870 2866 2863 2862 2861 2860 2861 2861 2862 2864 2866 2868 2871 2873 2875 2877 2878 2879 2880 2881 2883 2884 2886 2890 2892 2895 2897 2900 2903 2905 2908 2908 2906 2909 2915 2919 2923 2928 2933 2936 2939 2942 2946 2949 2952 2955 2958 2962 2966 2970 2975 2979 2982 2986
2898 2895 2892 2889 2886 2882 2879 2876 2873 2869 2866 2863 2861 2859 2859 2859 2859 2860 2862 2863 2866 2868 2870 2871 2872 2874 2875 2875 2876 2877 2879 2880 2882 2885 2888 2891 2894 2896 2899 2902 2903 2902 2903 2906 2912 2916 2920 2925 2928 2931 2935 2939 2941 2944 2947 2949 2952 2956 2961 2965 2970 2973 2977
2896 2893 2891 2888 2884 2881 2878 2875 2872 2869 2866 2863 2860 2859 2858 2857 2858 2859 2860 2861 2863 2865 2867 2868 2868 2869 2870 2871 2870 2871 2873 2874 2876 2878 2881 2884 2887 2889 2892 2896 2897 2897 2898 2899 2904 2910 2914 2917 2921 2923 2928 2932 2933 2935 2938 2940 2944 2948 2951 2955 2960 2964 2968
2894 2891 2889 2886 2883 2880 2877 2874 2872 2869 2866 2863 2861 2859 2857 2857 2857 2857 2858 2859 2861 2862 2863 2864 2865 2865 2866 2866 2866 2867 2868 2869 2870 2872 2874 2877 2880 2882 2884 2888 2891 2892 2894 2894 2897 2902 2907 2910 2913 2916 2920 2924 2925 2927 2929 2931 2935 2939 2942 2946 2950 2954 2959
2892 2889 2887 2885 2882 2879 2876 2873 2870 2868 2865 2863 2861 2859 2857 2856 2855 2855 2856 2857 2858 2859 2860 2861 2861 2862 2862 2861 2861 2862 2863 2864 2866 2867 2869 2872 2874 2876 2878 2881 2885 2887 2889 2890 2891 2895 2901 2904 2906 2909 2913 2916 2918 2920 2922 2924 2927 2930 2933 2937 2941 2946 2950
2889 2887 2885 2882 2880 2877 2875 2872 2869 2867 2865 2863 2860 2858 2856 2855 2855 2854 2854 2854 2855 2856 2856 2857 2857 2858 2858 2858 2858 2858 2859 2860 2861 2863 2865 2867 2869 2871 2874 2876 2879 2883 2885 2886 2887 2890 2894 2897 2899 2902 2906 2909 2911 2913 2915 2917 2919 2922 2925 2928 2932 2937 2941
2887 2884 2882 2880 2878 2875 2873 2871 2868 2865 2863 2862 2860 2858 2856 2855 2854 2853 2852 2852 2852 2852 2853 2853 2854 2854 2855 2855 2855 2856 2856 2857 2858 2859 2861 2863 2865 2867 2870 2872 2874 2877 2879 2881 2883 2885 2888 2890 2893 2896 2899 2902 2905 2907 2909 2911 2913 2915 2918 2921 2924 2928 2932
2884 2882 2879 2877 2875 2873 2871 2868 2866 2864 2862 2860 2859 2857 2855 2854 2853 2852 2851 2850 2850 2850 2850 2850 2850 2850 2851 2852 2852 2853 2854 2854 2855 2857 2858 2860 2862 2864 2866 2868 2870 2872 2874 2876 2878 2880 2883 2885 2887 2890 2893 2897 2899 2900 2903 2906 2908 2909 2912 2915 2917 2920 2923
2880 2878 2877 2874 2872 2870 2868 2866 2864 2861 2860 2859 2857 2856 2855 2853 2852 2851 2850 2849 2848 2848 2848 2847 2847 2847 2848 2848 2849 2849 2850 2851 2852 2853 2855 2857 2859 2860 2862 2863 2865 2868 2869 2871 2873 2875 2878 2880 2882 2885 2888 2891 2893 2895 2899 2903 2903 2903 2906 2910 2911 2912 2915
2877 2875 2873 2872 2870 2868 2866 2863 2861 2859 2858 2856 2855 2854 2853 2852 2851 2850 2849 2848 2847 2846 2846 2845 2845 2845 2845 2845 2846 2846 2847 2847 2848 2849 2851 2853 2854 2856 2858 2859 2861 2863 2865 2866 2868 2870 2873 2875 2877 2880 2884 2886 2889 2892 2895 2897 2897 2899 2902 2904 2904 2906 2909
2874 2872 2870 2868 2867 2865 2863 2860 2858 2857 2855 2854 2853 2852 2851 2851 2850 2849 2847 2847 2846 2845 2844 2844 2843 2843 2843 2843 2843 2844 2844 2844 2845 2846 2847 2848 2850 2851 2853 2855 2856 2858 2860 2862 2864 2866 2869 2871 2873 2876 2879 2882 2885 2887 2889 2891 2893 2894 2897 2898 2898 2901 2905
2870 2869 2867 2865 2864 2862 2860 2858 2856 2854 2853 2852 2850 2849 2848 2848 2848 2847 2846 2845 2844 2844 2843 2842 2842 2842 2841 2841 2841 2841 2841 2842 2842 2842 2843 2844 2845 2847 2848 2850 2852 2853 2856 2858 2860 2862 2865 2867 2870 2873 2875 2878 2881 2883 2885 2887 2888 2890 2892 2893 2894 2896 2900
2867 2866 2864 2862 2861 2860 2858 2856 2854 2852 2851 2849 2848 2847 2846 2845 2845 2845 2845 2844 2843 2842 2842 2841 2840 2840 2839 2839 2839 2839 2839 2839 2839 2839 2840 2840 2841 2842 2844 2845 2847 2849 2852 2854 2856 2858 2860 2863 2866 2869 2872 2875 2877 2879 2881 2882 2884 2886 2887 2889 2890 2892 2896
2864 2863 2861 2860 2859 2858 2856 2854 2852 2851 2849 2847 2846 2845 2844 2843 2842 2842 2842 2842 2841 2841 2840 2839 2839 2838 2838 2837 2836 2836 2836 2836 2836 2836 2836 2837 2837 2839 2840 2842 2843 2845 2848 2850 2852 2854 2857 2861 2863 2866 2869 2872 2874 2875 2877 2879 2880 2882 2883 2885 2887 2889 2890
2861 2860 2859 2857 2856 2856 2854 2852 2850 2849 2847 2846 2844 2843 2842 2841 2840 2839 2839 2839 2839 2839 2838 2837 2836 2836 2836 2835 2834 2833 2833 2833 2833 2833 2833 2834 2834 2836 2837 2838 2840 2842 2844 2847 2849 2851 2854 2858 2861 2863 2866 2869 2870 2872 2874 2876 2877 2879 2880 2881 2882 2883 2885
2858 2857 2856 2854 2853 2853 2852 2850 2848 2846 2845 2844 2843 2842 2840 2839 2838 2837 2837 2836 2836 2836 2835 2835 2834 2833 2833 2833 2832 2832 2831 2830 2830 2830 2830 2831 2832 2833 2834 2835 2838 2840 2841 2844 2846 2848 2851 2855 2858 2860 2863 2865 2867 2869 2870 2872 2873 2874 2876 2877 2877 2878 2880
2854 2853 2853 2852 2850 2850 2849 2847 2845 2844 2843 2842 2842 2841 2839 2837 2836 2835 2834 2834 2833 2832 2832 2832 2832 2831 2831 2831 2831 2830 2829 2828 2827 2827 2827 2828 2829 2830 2831 2833 2835 2837 2838 2841 2843 2845 2848 2851 2854 2857 2859 2862 2863 2865 2867 2868 2869 2870 2872 2873 2873 2874 2876
2851 2850 2849 2849 2848 2847 2846 2844 2842 2842 2841 2840 2840 2839 2837 2835 2834 2833 2832 2831 2830 2829 2829 2829 2829 2829 2828 2828 2828 2828 2827 2826 2825 2825 2825 2825 2825 2826 2827 2830 2833 2834 2835 2837 2839 2842 2845 2847 2850 2853 2856 2858 2860 2861 2863 2864 2865 2867 2868 2869 2869 2870 2872
2848 2847 2846 2846 2845 2844 2843 2842 2840 2839 2839 2838 2837 2836 2834 2832 2831 2830 2829 2828 2827 2826 2826 2826 2826 2826 2826 2826 2826 2825 2825 2824 2823 2823 2822 2822 2822 2822 2824 2827 2829 2830 2831 2833 2835 2838 2841 2843 2846 2850 2852 2854 2856 2858 2859 2860 2861 2863 2864 2864 2865 2867 2868
2845 2845 2844 2843 2842 2841 2840 2839 2838 2837 2836 2835 2834 2833 2831 2830 2828 2827 2826 2825 2824 2823 2823 2823 2823 2823 2824 2824 2824 2823 2823 2822 2822 2821 2820 2820 2819 2820 2821 2823 2824 2825 2827 2830 2832 2835 2838 2840 2843 2846 2848 2850 2852 2854 2855 2856 2858 2860 2861 2861 2862 2863 2864
2841 2841 2841 2840 2840 2839 2837 2836 2835 2834 2833 2833 2832 2830 2829 2828 2826 2825 2823 2823 2822 2821 2820 2820 2820 2821 2821 2821 2821 2821 2821 2821 2820 2819 2818 2817 2817 2817 2818 2819 2820 2822 2824 2827 2829 2832 2834 2836 2839 2841 2844 2846 2848 2851 2852 2853 2855 2856 2857 2858 2858 2859 2860
2838 2838 2838 2837 2837 2836 2835 2833 2832 2831 2831 2830 2829 2828 2827 2825 2824 2823 2821 2820 2819 2818 2817 2817 2817 2818 2818 2819 2819 2819 2819 2819 2819 2818 2816 2815 2815 2815 2815 2816 2817 2819 2821 2823 2826 2829 2831 2833 2835 2838 2840 2842 2845 2848 2849 2851 2852 2853 2853 2854 2854 2855 2856
2834 2835 2835 2835 2834 2833 2832 2831 2830 2829 2828 2827 2826 2825 2824 2823 2822 2820 2819 2818 2817 2816 2815 2815 2815 2815 2816 2816 2817 2817 2817 2817 2817 2816 2815 2814 2814 2814 2813 2814 2815 2817 2818 2821 2824 2826 2828 2830 2832 2834 2837 2840 2843 2845 2846 2847 2848 2849 2849 2850 2850 2851 2852
2831 2831 2831 2832 2831 2830 2829 2828 2827 2826 2825 2824 2823 2822 2821 2820 2819 2818 2817 2815 2814 2813 2813 2812 2812 2812 2813 2813 2814 2814 2814 2814 2814 2814 2814 2813 2813 2813 2812 2812 2813 2815 2817 2819 2821 2823 2825 2828 2830 2832 2835 2838 2840 2842 2842 2843 2844 2845 2845 2846 2846 2847 2847
2827 2828 2828 2828 2828 2827 2827 2826 2825 2824 2822 2821 2820 2819 2818 2817 2816 2815 2814 2813 2812 2811 2810 2810 2809 2809 2809 2810 2810 2810 2811 2811 2812 2812 2812 2812 2812 2812 2812 2812 2813 2814 2815 2817 2818 2821 2823 2826 2828 2830 2833 2835 2836 2837 2838 2839 2840 2841 2841 2842 2842 2842 2843
2824 2824 2825 2825 2825 2825 2824 2823 2822 2821 2820 2818 2817 2816 2815 2814 2813 2812 2811 2811 2810 2809 2808 2807 2807 2806 2806 2807 2807 2808 2808 2809 2809 2810 2810 2810 2810 2810 2810 2811 2811 2812 2813 2815 2817 2819 2821 2823 2826 2828 2829 2830 2831 2832 2834 2835 2836 2837 2837 2838 2838 2839 2839
2820 2820 2821 2822 2822 2822 2821 2820 2819 2817 2816 2815 2814 2813 2812 2811 2810 2809 2808 2808 2807 2806 2805 2805 2804 2804 2804 2804 2804 2804 2805 2805 2806 2807 2807 2807 2808 2808 2808 2809 2809 2810 2811 2813 2815 2816 2818 2820 2822 2823 2824 2826 2827 2828 2830 2831 2832 2833 2834 2834 2835 2835 2835
2817 2817 2817 2818 2818 2818 2818 2817 2816 2814 2813 2812 2811 2810 2809 2807 2806 2806 2805 2805 2804 2803 2802 2802 2802 2801 2801 2801 2801 2801 2801 2802 2802 2803 2804 2805 2805 2806 2806 2806 2807 2808 2809 2810 2811 2812 2814 2816 2817 2819 2820 2822 2823 2824 2826 2827 2828 2829 2830 2831 2831 2832 2832
2814 2813 2813 2813 2813 2813 2813 2813 2812 2811 2809 2808 2807 2805 2805 2804 2803 2802 2802 2801 2800 2800 2799 2799 2799 2798 2798 2798 2798 2798 2798 2798 2799 2800 2800 2801 2802 2802 2803 2804 2804 2805 2806 2806 2808 2809 2810 2811 2813 2814 2816 2818 2819 2820 2822 2823 2825 2826 2827 2827 2828 2828 2829
2811 2810 2809 2809 2809 2809 2808 2807 2807 2806 2805 2804 2803 2801 2800 2799 2798 2798 2798 2797 2797 2796 2796 2796 2795 2795 2795 2795 2795 2795 2795 2795 2796 2796 2797 2797 2798 2799 2799 2800 2801 2801 2802 2803 2804 2805 2806 2807 2809 2810 2812 2814 2815 2817 2818 2820 2821 2822 2823 2824 2824 2825 2826
2807 2806 2806 2805 2805 2804 2804 2803 2802 2802 2801 2800 2799 2798 2796 2795 2794 2794 2794 2794 2793 2793 2793 2792 2792 2792 2792 2792 2792 2792 2792 2792 2793 2793 2793 2793 2794 2794 2795 2796 2797 2797 2798 2799 2800 2801 2802 2803 2805 2806 2808 2809 2811 2813 2814 2816 2817 2818 2819 2820 2821 2822 2822
2804 2803 2802 2801 2800 2800 2800 2800 2799 2798 2797 2796 2795 2794 2792 2791 2790 2791 2791 2790 2790 2790 2789 2789 2789 2789 2790 2790 2790 2790 2790 2790 2790 2790 2790 2790 2790 2791 2791 2792 2792 2793 2793 2794 2795 2796 2797 2798 2800 2801 2803 2805 2806 2808 2810 2811 2813 2814 2815 2817 2818 2818 2819
2800 2799 2798 2797 2796 2796 2796 2796 2795 2794 2793 2792 2791 2790 2789 2788 2787 2787 2787 2787 2787 2787 2786 2786 2787 2787 2787 2787 2787 2787 2787 2788 2788 2788 2788 2788 2787 2787 2787 2788 2788 2789 2789 2790 2790 2791 2792 2793 2795 2796 2798 2800 2801 2803 2805 2807 2809 2810 2812 2813 2814 2815 2816
2796 2795 2794 2793 2793 2792 2792 2791 2791 2790 2790 2789 2788 2786 2785 2784 2784 2784 2784 2784 2784 2784 2784 2784 2784 2784 2784 2784 2784 2785 2785 2785 2785 2785 2785 2785 2785 2784 2784 2784 2784 2785 2785 2785 2786 2787 2787 2788 2790 2791 2793 2795 2796 2798 2800 2802 2804 2806 2808 2809 2811 2812 2813
2794 2792 2791 2790 2789 2788 2788 2787 2787 2787 2786 2785 2784 2783 2782 2781 2781 2781 2781 2781 2781 2781 2781 2781 2781 2781 2781 2781 2782 2782 2782 2782 2782 2782 2782 2782 2782 2781 2781 2781 2781 2781 2781 2781 2782 2782 2783 2784 2785 2786 2787 2789 2791 2793 2795 2797 2800 2802 2804 2806 2807 2809 2810
2792 2790 2789 2787 2786 2785 2785 2784 2784 2783 2783 2782 2781 2780 2779 2779 2778 2778 2778 2778 2778 2778 2778 2778 2778 2778 2778 2779 2779 2779 2779 2779 2779 2779 2779 2779 2779 2778 2778 2778 2778 2778 2778 2778 2778 2778 2779 2779 2780 2781 2783 2784 2785 2787 2790 2792 2795 2798 2800 2802 2804 2805 2807